| time (UTC) | temp F | wind direction | speed MPH | gust MPH | rain 1hr in | rain 24hr in | rain mn in | humidity % | barometer mb |
| 20260507064600 | 44 | 90 | 2.0 | 6.0 | 0.00 | 0.05 | 0.05 | 79 | 1011.9 |
| 20260507063059 | 44 | 107 | 1.0 | 8.0 | 0.00 | 0.05 | 0.05 | 81 | 1012.0 |
| 20260507061559 | 43 | 92 | 2.0 | 4.0 | 0.00 | 0.05 | 0.05 | 81 | 1012.0 |
| 20260507060100 | 43 | 111 | 1.0 | 4.0 | 0.00 | 0.05 | 0.05 | 82 | 1011.9 |
| 20260507054607 | 42 | 106 | 1.0 | 6.0 | 0.00 | 0.05 | 0.05 | 83 | 1012.0 |
| 20260507053058 | 42 | 89 | 1.0 | 7.0 | 0.00 | 0.05 | 0.05 | 84 | 1012.0 |
| 20260507051559 | 41 | 104 | 2.0 | 4.0 | 0.00 | 0.05 | 0.05 | 84 | 1011.9 |
| 20260507050100 | 41 | 132 | 2.0 | 6.0 | 0.00 | 0.05 | 0.05 | 85 | 1011.9 |
| 20260507044618 | 41 | 115 | 1.0 | 6.0 | 0.00 | 0.05 | 0.05 | 85 | 1011.9 |
| 20260507043102 | 41 | 74 | 1.0 | 5.0 | 0.00 | 0.05 | 0.05 | 84 | 1011.9 |
| 20260507041607 | 41 | 65 | 1.0 | 6.0 | 0.00 | 0.05 | 0.05 | 85 | 1011.9 |
| 20260507040105 | 41 | 106 | 1.0 | 4.0 | 0.00 | 0.05 | 0.05 | 85 | 1011.9 |
| 20260507034600 | 41 | 96 | 1.0 | 7.0 | 0.01 | 0.05 | 0.05 | 86 | 1011.9 |
| 20260507033057 | 41 | 107 | 3.0 | 8.0 | 0.01 | 0.04 | 0.04 | 86 | 1011.9 |
| 20260507031600 | 41 | 103 | 4.0 | 8.0 | 0.01 | 0.04 | 0.04 | 86 | 1011.9 |
| 20260507030057 | 41 | 46 | 1.0 | 9.0 | 0.01 | 0.04 | 0.04 | 87 | 1012.0 |
| 20260507024556 | 41 | 105 | 1.0 | 6.0 | 0.00 | 0.03 | 0.03 | 86 | 1012.0 |
| 20260507023054 | 41 | 94 | 1.0 | 6.0 | 0.00 | 0.03 | 0.03 | 85 | 1011.8 |
| 20260507021555 | 41 | 62 | 2.0 | 6.0 | 0.00 | 0.03 | 0.03 | 85 | 1011.8 |
| 20260507020103 | 41 | 57 | 1.0 | 5.0 | 0.00 | 0.03 | 0.03 | 87 | 1011.9 |
| 20260507014607 | 41 | 82 | 2.0 | 6.0 | 0.00 | 0.03 | 0.03 | 87 | 1011.5 |
| 20260507013054 | 41 | 105 | 2.0 | 6.0 | 0.00 | 0.02 | 0.02 | 87 | 1011.6 |
| 20260507011604 | 41 | 80 | 2.0 | 6.0 | 0.00 | 0.02 | 0.02 | 87 | 1011.5 |
| 20260507010056 | 41 | 96 | 2.0 | 6.0 | 0.00 | 0.02 | 0.02 | 88 | 1011.5 |
| 20260507004559 | 41 | 105 | 3.0 | 7.0 | 0.00 | 0.02 | 0.02 | 88 | 1011.5 |
| 20260507003055 | 41 | 94 | 2.0 | 6.0 | 0.00 | 0.02 | 0.02 | 88 | 1011.6 |
| 20260507001614 | 41 | 104 | 1.0 | 6.0 | 0.02 | 0.02 | 0.02 | 88 | 1011.6 |
| 20260507000100 | 41 | 0 | 2.0 | 4.0 | 0.02 | 0.02 | 0.02 | 88 | 1011.7 |
| 20260506234602 | 41 | 113 | 1.0 | 4.0 | 0.01 | 0.01 | 0.01 | 88 | 1011.7 |
| 20260506233056 | 42 | 100 | 1.0 | 3.0 | 0.01 | 0.01 | 0.01 | 87 | 1011.7 |
| 20260506231557 | 42 | 91 | 1.0 | 3.0 | 0.00 | 0.00 | 0.00 | 86 | 1011.7 |
| 20260506230058 | 42 | 84 | 0.0 | 3.0 | 0.00 | 0.00 | 0.00 | 86 | 1011.8 |
| 20260506224557 | 42 | 94 | 1.0 | 2.0 | 0.00 | 0.00 | 0.00 | 85 | 1012.0 |
| 20260506223108 | 42 | 104 | 1.0 | 4.0 | 0.00 | 0.00 | 0.00 | 85 | 1012.0 |
| 20260506221558 | 41 | 108 | 1.0 | 3.0 | 0.00 | 0.00 | 0.00 | 85 | 1012.0 |
| 20260506220108 | 41 | 109 | 2.0 | 4.0 | 0.00 | 0.00 | 0.00 | 85 | 1011.9 |
| 20260506214557 | 41 | 97 | 1.0 | 3.0 | 0.00 | 0.00 | 0.00 | 85 | 1012.1 |
| 20260506213101 | 41 | 90 | 0.0 | 2.0 | 0.00 | 0.00 | 0.00 | 85 | 1012.4 |
| 20260506211557 | 42 | 47 | 0.0 | 2.0 | 0.00 | 0.00 | 0.00 | 84 | 1012.6 |
| 20260506210115 | 42 | 110 | 1.0 | 3.0 | 0.00 | 0.00 | 0.00 | 81 | 1012.5 |
| 20260506204556 | 42 | 115 | 0.0 | 2.0 | 0.00 | 0.00 | 0.00 | 81 | 1012.8 |
| 20260506203141 | 42 | 128 | 0.0 | 6.0 | 0.00 | 0.00 | 0.00 | 79 | 1012.8 |
| 20260506201557 | 42 | 171 | 1.0 | 5.0 | 0.00 | 0.00 | 0.00 | 77 | 1012.4 |
| 20260506200058 | 43 | 0 | 0.0 | 4.0 | 0.00 | 0.00 | 0.00 | 76 | 1012.3 |
| 20260506194556 | 43 | 162 | 2.0 | 8.0 | 0.00 | 0.00 | 0.00 | 76 | 1012.4 |
| 20260506193056 | 43 | 200 | 1.0 | 7.0 | 0.00 | 0.00 | 0.00 | 75 | 1012.4 |
| 20260506191604 | 44 | 130 | 2.0 | 6.0 | 0.00 | 0.00 | 0.00 | 74 | 1012.6 |
| 20260506190058 | 44 | 135 | 2.0 | 7.0 | 0.00 | 0.00 | 0.00 | 72 | 1012.5 |
| 20260506184559 | 44 | 91 | 4.0 | 10.0 | 0.00 | 0.00 | 0.00 | 70 | 1012.1 |
| 20260506183103 | 45 | 152 | 3.0 | 9.0 | 0.00 | 0.00 | 0.00 | 67 | 1012.0 |
| 20260506181601 | 47 | 150 | 2.0 | 8.0 | 0.00 | 0.00 | 0.00 | 63 | 1012.1 |
| 20260506180058 | 48 | 150 | 4.0 | 12.0 | 0.00 | 0.00 | 0.00 | 59 | 1012.0 |
| 20260506174608 | 50 | 193 | 1.0 | 11.0 | 0.00 | 0.00 | 0.00 | 55 | 1012.0 |
| 20260506173059 | 51 | 94 | 2.0 | 7.0 | 0.00 | 0.00 | 0.00 | 50 | 1011.9 |
| 20260506171606 | 52 | 132 | 3.0 | 8.0 | 0.00 | 0.00 | 0.00 | 46 | 1011.8 |
| 20260506170104 | 52 | 100 | 5.0 | 11.0 | 0.00 | 0.00 | 0.00 | 45 | 1011.5 |
| 20260506164600 | 53 | 127 | 2.0 | 8.0 | 0.00 | 0.00 | 0.00 | 44 | 1011.5 |
| 20260506163131 | 53 | 0 | 0.0 | 3.0 | 0.00 | 0.00 | 0.00 | 41 | 1011.4 |
| 20260506161557 | 53 | 94 | 0.0 | 4.0 | 0.00 | 0.00 | 0.00 | 41 | 1011.4 |
| 20260506154556 | 54 | 58 | 2.0 | 4.0 | 0.00 | 0.00 | 0.00 | 39 | 1011.0 |
| 20260506153134 | 54 | 101 | 2.0 | 6.0 | 0.00 | 0.00 | 0.00 | 35 | 1011.0 |
| 20260506151605 | 54 | 114 | 2.0 | 8.0 | 0.00 | 0.00 | 0.00 | 35 | 1010.9 |
| 20260506150059 | 54 | 101 | 3.0 | 9.0 | 0.00 | 0.00 | 0.00 | 32 | 1011.4 |
| 20260506144604 | 55 | 104 | 3.0 | 8.0 | 0.00 | 0.00 | 0.00 | 31 | 1011.6 |
| 20260506143057 | 55 | 113 | 2.0 | 8.0 | 0.00 | 0.00 | 0.00 | 38 | 1012.1 |
| 20260506141601 | 55 | 47 | 3.0 | 7.0 | 0.00 | 0.00 | 0.00 | 36 | 1012.3 |
| 20260506134610 | 56 | 100 | 3.0 | 8.0 | 0.00 | 0.00 | 0.00 | 36 | 1012.5 |
| 20260506133109 | 56 | 47 | 4.0 | 10.0 | 0.00 | 0.00 | 0.00 | 38 | 1012.6 |
| 20260506131608 | 56 | 35 | 3.0 | 9.0 | 0.00 | 0.00 | 0.00 | 40 | 1012.6 |
| 20260506130110 | 57 | 126 | 4.0 | 9.0 | 0.00 | 0.00 | 0.00 | 38 | 1012.6 |
| 20260506124610 | 56 | 104 | 0.0 | 4.0 | 0.00 | 0.00 | 0.00 | 39 | 1012.8 |
| 20260506123114 | 57 | 68 | 3.0 | 8.0 | 0.00 | 0.00 | 0.00 | 40 | 1012.7 |
| 20260506121611 | 56 | 36 | 3.0 | 12.0 | 0.00 | 0.00 | 0.00 | 42 | 1012.5 |
| 20260506120058 | 56 | 5 | 2.0 | 8.0 | 0.00 | 0.00 | 0.00 | 44 | 1012.6 |
| 20260506114557 | 56 | 114 | 3.0 | 9.0 | 0.00 | 0.00 | 0.00 | 41 | 1012.5 |
| 20260506113054 | 56 | 205 | 0.0 | 8.0 | 0.00 | 0.00 | 0.00 | 39 | 1012.8 |
| 20260506111555 | 56 | 53 | 3.0 | 8.0 | 0.00 | 0.00 | 0.00 | 43 | 1012.8 |
| 20260506110104 | 56 | 29 | 3.0 | 8.0 | 0.00 | 0.00 | 0.00 | 38 | 1012.8 |
| 20260506104606 | 55 | 341 | 1.0 | 6.0 | 0.00 | 0.00 | 0.00 | 44 | 1012.8 |
| 20260506103103 | 53 | 70 | 1.0 | 7.0 | 0.00 | 0.00 | 0.00 | 45 | 1013.0 |
| 20260506101618 | 53 | 355 | 2.0 | 9.0 | 0.00 | 0.00 | 0.00 | 45 | 1013.2 |
| 20260506100058 | 53 | 123 | 3.0 | 8.0 | 0.00 | 0.00 | 0.00 | 42 | 1013.2 |
| 20260506094559 | 52 | 304 | 2.0 | 5.0 | 0.00 | 0.00 | 0.00 | 44 | 1013.1 |
| 20260506093100 | 52 | 142 | 1.0 | 9.0 | 0.00 | 0.00 | 0.00 | 44 | 1013.3 |
| 20260506091556 | 51 | 311 | 2.0 | 6.0 | 0.00 | 0.00 | 0.00 | 45 | 1013.3 |
| 20260506090111 | 52 | 325 | 3.0 | 8.0 | 0.00 | 0.00 | 0.00 | 48 | 1013.3 |
| 20260506084632 | 52 | 329 | 1.0 | 6.0 | 0.00 | 0.00 | 0.00 | 48 | 1013.3 |
| 20260506083058 | 51 | 77 | 2.0 | 5.0 | 0.00 | 0.00 | 0.00 | 49 | 1013.4 |
| 20260506081611 | 50 | 271 | 3.0 | 8.0 | 0.00 | 0.00 | 0.00 | 51 | 1013.4 |
| 20260506073056 | 49 | 98 | 1.0 | 6.0 | 0.00 | 0.00 | 0.00 | 56 | 1013.2 |
| 20260506071559 | 49 | 5 | 3.0 | 6.0 | 0.00 | 0.00 | 0.00 | 60 | 1013.2 |